Weather in Kovylka

Russia / Tambov Oblast     52°38′05″N   42°22′42″E
temp.,
°C
wind,
m/s
gust,
m/s
humid.,
%
clouds,
%
prec.,
mm/h
press.,
hPa
HPBL,
m
25 february, thu
thu2500:00−18ssw4794100 0.0 1036259
03:00−17ssw5996100 0.1 1034336
06:00−15ssw61095100 0.4 1030394
09:00−13ssw71195100 1.7 1027433
12:00−9ssw71394100 1.4 1023468
15:00−6ssw81395100 3.4 1019452
18:00−2sw61395100 1.8 1016383
21:00+1wnw51199100 1.9 1015324
26 february, fri
fri2600:00+1wnw51199100 0.0 1014302
03:00+1wnw4998100 0.0 1015289
06:00+1w3698100 0.0 1014176
09:00+1w5999100 0.3 1014280
12:00+1w611100100 0.4 1012323
15:00+2wsw51199100 0.4 1011308
18:00+2wsw71599100 0.2 1008361
21:00+2w81699100 0.5 1007522
27 february, sat
sat2700:00+2w71495100 0.0 1006538
03:00+1w7149098 0.0 1006575
06:00+1w7138992 0.0 1004574
09:000w7129596 0.1 1004748
12:000w61196100 0.1 1003681
15:00+1w61297100 0.1 1003737
18:000wnw71297100 0.2 1002681
21:00−4nnw71393100 0.6 1005524
28 february, sun
sun2800:00−7nnw5993100 0.1 1007584
03:00−9nnw4993100 0.1 1010432
06:00−11nnw599499 0.0 1011390
09:00−11nnw589293 0.1 1013425
12:00−10nnw479198 0.0 1015495
15:00−8nnw589099 0.1 1016545
18:00−10nnw4994100 0.0 1017308
21:00−10nnw3109588 0.1 1020303
1 march, mon
mon100:00−11nnw359688 0.0 1021128
03:00−12nnw369677 0.1 1023145
06:00−13nnw389679 0.0 1024215
09:00−12nnw479475 0.0 1026326
12:00−10nnw359071 0.0 1027405
15:00−8nw379178 0.0 1028491
18:00−10wnw359488 0.0 102783
21:00−10wnw369772 0.1 1028103